Regional Weather Roundup
Issued by NWS Green Bay, WI

Home | Current Version | Previous Version | Graphics & Text | Print | Product List | Glossary Off
Versions: 1 2 3 4 5 6 7 8 9 10 11 12 13 14 15 16 17 18 19 20 21 22 23 24 25 26 27 28 29 30 31 32 33 34 35 36 37 38 39 40 41 42 43 44 45 46 47 48 49 50

000
ASUS43 KGRB 221800
RWRGRB

NORTH-CENTRAL AND NORTHEAST WISCONSIN REGIONAL WEATHER ROUNDUP
NATIONAL WEATHER SERVICE GREEN BAY WI
100 PM CDT MON MAY 22 2017

WIZ005-009-010>012-018-019-221900-
NORTH CENTRAL WISCONSIN

CITY           SKY/WX    TMP DP  RH WIND       PRES   REMARKS
IRONWOOD       CLOUDY    51  42  71 SW14      29.77S
MANITOWISH WTR NOT AVBL
ARBOR VITAE    NOT AVBL
EAGLE RIVER    NOT AVBL
LAND O LAKES   NOT AVBL
RHINELANDER    CLOUDY    56  41  57 W12G20    29.80F
PHILLIPS       CLOUDY    52  43  71 W7        29.79S
ANTIGO         NOT AVBL
TOMAHAWK       NOT AVBL
MERRILL        NOT AVBL
$$

WIZ013-073-221900-
NORTHEAST WISCONSIN

CITY           SKY/WX    TMP DP  RH WIND       PRES   REMARKS
IRON MOUNTAIN  CLOUDY    56  39  53 W10G21    29.78F
MARINETTE      NOT AVBL
$$

WIZ017-030-035>037-045-221900-
CENTRAL WISCONSIN

CITY           SKY/WX    TMP DP  RH WIND       PRES   REMARKS
MEDFORD        NOT AVBL
WAUSAU         PTSUNNY   59  42  53 W13G22    29.80F
MOSINEE        PTSUNNY   61  45  55 SW17G23   29.84F
MARSHFIELD     MOSUNNY   62  43  49 W12G25    29.82F
WISC RAPIDS    MOSUNNY   65  44  46 SW16G22   29.85F
STEVENS POINT  NOT AVBL
WAUPACA        NOT AVBL
SHAWANO        NOT AVBL
CLINTONVILLE   PTSUNNY   64  41  42 SW16G22   29.84F
WAUTOMA        MOSUNNY   66  45  46 MISG      29.85F
$$

WIZ038-039-048-051-221900-
FOX VALLEY

CITY           SKY/WX    TMP DP  RH WIND       PRES   REMARKS
NWS GREEN BAY  PTSUNNY   62  47  57 SW13      29.85F
APPLETON       PTSUNNY   63  43  48 SW14G21   29.85F
OSHKOSH        SUNNY     64  46  52 SW15G21   29.86F
FOND DU LAC    MOSUNNY   65  46  50 SW12G23   29.87F
$$

WIZ022-050-052-221900-
EAST CENTRAL WISCONSIN

CITY           SKY/WX    TMP DP  RH WIND       PRES   REMARKS
EPHRAIM        NOT AVBL
WASHINGTON ISL NOT AVBL
STURGEON BAY   MOSUNNY   60  43  53 W14G23    29.85F
MANITOWOC      NOT AVBL
SHEBOYGAN      MOSUNNY   65  47  52 SW17      29.89F
$$

LMZ563-521-522-541>543-221900-
LAKESHORE

STATION/POSITION TIME  TEMP    WIND        PRES    VSBY  WAVE
                       AIR SEA DIR/SP/G                  HT/PER
                 (UTC) (F)     (DEG/KT/KT) (MB)    (MI)  (FT/S)
SHEBOYGAN LKSHOR 1700   60     230/ 15/ 18 1012.3F
KEWAUNEE LKSHORE 1730   60     240/ 10/ 20 1011.0S
NORTHPORT PIER   1740   58     280/  8/ 17 1009.8F
N MID LAKE BUOY  1650   42 39  200/ 10/ 12 1011.5R         2/ 5
CHAMBERS ISLAND  1740   58     210/  7/ 15 1009.8S
MENOMINEE LKSHOR 1730          240/ 13/ 19 1009.3F
$$



USA.gov is the U.S. government's official web portal to all federal, state and local government web resources and services.